Time,TemperatureF,DewpointF,PressureIn,WindDirection,WindDirectionDegrees,WindSpeedMPH,WindSpeedGustMPH,Humidity,HourlyPrecipIn,Conditions,Clouds,dailyrainin,SolarRadiationWatts/m^2,SoftwareType,DateUTC
2016-02-09 00:06:00,41.4,36.0,29.40,WSW,238,5.0,9.0,81,0.00,,,0.00,0,Wunderground v.1.15,2016-02-09 00:06:00,
2016-02-09 00:11:00,41.4,36.0,29.40,SSW,198,4.0,4.0,81,0.00,,,0.00,0,Wunderground v.1.15,2016-02-09 00:11:00,
2016-02-09 00:21:00,41.3,35.9,29.39,SW,221,3.0,7.0,81,0.00,,,0.00,0,Wunderground v.1.15,2016-02-09 00:21:00,
2016-02-09 00:26:00,41.2,36.1,29.39,SSW,192,3.0,7.0,82,0.00,,,0.00,0,Wunderground v.1.15,2016-02-09 00:26:00,
2016-02-09 00:36:00,41.0,35.9,29.40,SW,236,2.0,4.0,82,0.00,,,0.00,0,Wunderground v.1.15,2016-02-09 00:36:00,
2016-02-09 00:46:00,40.9,35.8,29.39,South,188,3.0,6.0,82,0.00,,,0.00,0,Wunderground v.1.15,2016-02-09 00:46:00,
2016-02-09 00:51:00,40.9,35.8,29.39,WSW,241,3.0,5.0,82,0.00,,,0.00,0,Wunderground v.1.15,2016-02-09 00:51:00,
2016-02-09 00:56:00,40.9,35.8,29.39,SSW,204,4.0,5.0,82,0.00,,,0.00,0,Wunderground v.1.15,2016-02-09 00:56:00,
2016-02-09 01:06:00,41.1,36.0,29.39,SSW,211,4.0,5.0,82,0.00,,,0.00,0,Wunderground v.1.15,2016-02-09 01:06:00,
2016-02-09 01:16:00,41.1,35.7,29.39,SW,221,4.0,4.0,81,0.00,,,0.00,0,Wunderground v.1.15,2016-02-09 01:16:00,
2016-02-09 01:21:00,41.0,35.9,29.39,SSW,209,3.0,3.0,82,0.00,,,0.00,0,Wunderground v.1.15,2016-02-09 01:21:00,
2016-02-09 01:31:00,40.8,35.7,29.39,SW,228,2.0,2.0,82,0.00,,,0.00,0,Wunderground v.1.15,2016-02-09 01:31:00,
2016-02-09 01:36:00,40.7,35.6,29.39,SW,220,3.0,6.0,82,0.00,,,0.00,0,Wunderground v.1.15,2016-02-09 01:36:00,
2016-02-09 01:51:00,40.9,35.8,29.39,West,263,4.0,7.0,82,0.00,,,0.00,0,Wunderground v.1.15,2016-02-09 01:51:00,
2016-02-09 02:01:00,40.9,35.8,29.39,WSW,249,5.0,7.0,82,0.00,,,0.00,0,Wunderground v.1.15,2016-02-09 02:01:00,
2016-02-09 02:06:00,40.9,35.8,29.38,West,260,5.0,7.0,82,0.00,,,0.00,0,Wunderground v.1.15,2016-02-09 02:06:00,
2016-02-09 02:11:00,40.9,35.8,29.38,WSW,240,5.0,5.0,82,0.00,,,0.00,0,Wunderground v.1.15,2016-02-09 02:11:00,
2016-02-09 02:21:00,40.6,35.5,29.36,South,186,3.0,3.0,82,0.00,,,0.00,0,Wunderground v.1.15,2016-02-09 02:21:00,
2016-02-09 02:31:00,40.4,35.6,29.36,WSW,249,3.0,3.0,83,0.00,,,0.00,0,Wunderground v.1.15,2016-02-09 02:31:00,
2016-02-09 02:46:00,39.8,35.1,29.37,SW,226,2.0,5.0,83,0.00,,,0.00,0,Wunderground v.1.15,2016-02-09 02:46:00,
2016-02-09 02:51:00,39.7,35.0,29.37,South,186,2.0,2.0,83,0.00,,,0.00,0,Wunderground v.1.15,2016-02-09 02:51:00,
2016-02-09 03:01:00,39.6,35.2,29.37,SSW,209,3.0,3.0,84,0.00,,,0.00,0,Wunderground v.1.15,2016-02-09 03:01:00,
2016-02-09 03:06:00,39.7,35.3,29.36,WSW,257,3.0,3.0,84,0.00,,,0.00,0,Wunderground v.1.15,2016-02-09 03:06:00,
2016-02-09 03:16:00,39.9,35.2,29.35,SSW,193,4.0,10.0,83,0.00,,,0.00,0,Wunderground v.1.15,2016-02-09 03:16:00,
2016-02-09 03:21:00,40.0,35.3,29.34,SSW,200,4.0,4.0,83,0.00,,,0.00,0,Wunderground v.1.15,2016-02-09 03:21:00,
2016-02-09 03:31:00,39.8,35.1,29.34,West,278,3.0,3.0,83,0.00,,,0.00,0,Wunderground v.1.15,2016-02-09 03:31:00,
2016-02-09 03:36:00,39.7,35.0,29.34,SW,229,3.0,3.0,83,0.00,,,0.00,0,Wunderground v.1.15,2016-02-09 03:36:00,
2016-02-09 03:46:00,39.6,35.2,29.33,South,181,2.0,2.0,84,0.00,,,0.00,0,Wunderground v.1.15,2016-02-09 03:46:00,
2016-02-09 04:01:00,39.5,35.1,29.31,South,187,2.0,5.0,84,0.00,,,0.00,0,Wunderground v.1.15,2016-02-09 04:01:00,
2016-02-09 04:06:00,39.5,35.4,29.31,SW,236,2.0,5.0,85,0.00,,,0.00,0,Wunderground v.1.15,2016-02-09 04:06:00,
2016-02-09 04:16:00,39.5,35.4,29.30,SW,216,2.0,3.0,85,0.00,,,0.00,0,Wunderground v.1.15,2016-02-09 04:16:00,
2016-02-09 04:26:00,39.4,35.6,29.29,WSW,252,2.0,2.0,86,0.00,,,0.00,0,Wunderground v.1.15,2016-02-09 04:26:00,
2016-02-09 04:41:00,39.6,35.8,29.28,WSW,253,1.0,1.0,86,0.00,,,0.00,0,Wunderground v.1.15,2016-02-09 04:41:00,
2016-02-09 04:46:00,39.5,35.7,29.28,WSW,250,1.0,1.0,86,0.00,,,0.00,0,Wunderground v.1.15,2016-02-09 04:46:00,
2016-02-09 04:56:00,39.4,35.9,29.27,WSW,250,0.0,0.0,87,0.00,,,0.00,0,Wunderground v.1.15,2016-02-09 04:56:00,
2016-02-09 05:01:00,39.3,35.8,29.27,WSW,250,0.0,1.0,87,0.00,,,0.00,0,Wunderground v.1.15,2016-02-09 05:01:00,
2016-02-09 05:11:00,39.2,35.7,29.27,WSW,249,1.0,1.0,87,0.00,,,0.00,0,Wunderground v.1.15,2016-02-09 05:11:00,
2016-02-09 05:16:00,39.1,35.6,29.26,WSW,249,0.0,1.0,87,0.00,,,0.00,0,Wunderground v.1.15,2016-02-09 05:16:00,
2016-02-09 05:26:00,39.0,35.7,29.25,WSW,240,1.0,2.0,88,0.00,,,0.00,0,Wunderground v.1.15,2016-02-09 05:26:00,
2016-02-09 05:31:00,38.9,35.6,29.25,WSW,240,1.0,1.0,88,0.00,,,0.00,0,Wunderground v.1.15,2016-02-09 05:31:00,
2016-02-09 05:41:00,38.9,35.9,29.25,SW,231,2.0,2.0,89,0.00,,,0.00,0,Wunderground v.1.15,2016-02-09 05:41:00,
2016-02-09 05:46:00,39.1,35.8,29.24,SW,224,2.0,2.0,88,0.00,,,0.00,0,Wunderground v.1.15,2016-02-09 05:46:00,
2016-02-09 05:56:00,39.3,36.0,29.24,SW,224,1.0,2.0,88,0.00,,,0.00,0,Wunderground v.1.15,2016-02-09 05:56:00,
2016-02-09 06:01:00,39.5,36.2,29.24,SSW,193,2.0,2.0,88,0.00,,,0.00,0,Wunderground v.1.15,2016-02-09 06:01:00,
2016-02-09 06:06:00,39.6,36.3,29.24,South,186,2.0,2.0,88,0.00,,,0.00,0,Wunderground v.1.15,2016-02-09 06:06:00,
2016-02-09 06:16:00,39.7,36.1,29.22,South,186,1.0,2.0,87,0.00,,,0.00,0,Wunderground v.1.15,2016-02-09 06:16:00,
2016-02-09 06:26:00,39.8,36.2,29.22,South,186,1.0,1.0,87,0.00,,,0.00,0,Wunderground v.1.15,2016-02-09 06:26:00,
2016-02-09 06:41:00,39.9,36.9,29.21,SSW,194,1.0,2.0,89,0.00,,,0.00,0,Wunderground v.1.15,2016-02-09 06:41:00,
2016-02-09 06:46:00,40.0,37.0,29.20,SSW,198,2.0,2.0,89,0.00,,,0.00,0,Wunderground v.1.15,2016-02-09 06:46:00,
2016-02-09 06:51:00,40.0,37.3,29.19,South,190,2.0,3.0,90,0.00,,,0.00,0,Wunderground v.1.15,2016-02-09 06:51:00,
2016-02-09 07:01:00,40.2,37.5,29.19,SSW,209,2.0,2.0,90,0.00,,,0.00,0,Wunderground v.1.15,2016-02-09 07:01:00,
2016-02-09 07:11:00,40.2,37.5,29.18,South,189,1.0,2.0,90,0.00,,,0.00,0,Wunderground v.1.15,2016-02-09 07:11:00,
2016-02-09 07:16:00,40.2,37.5,29.18,South,179,1.0,4.0,90,0.00,,,0.00,0,Wunderground v.1.15,2016-02-09 07:16:00,
2016-02-09 07:26:00,40.4,37.7,29.18,South,187,2.0,2.0,90,0.00,,,0.00,0,Wunderground v.1.15,2016-02-09 07:26:00,
2016-02-09 07:31:00,40.5,37.8,29.18,South,184,2.0,3.0,90,0.00,,,0.00,0,Wunderground v.1.15,2016-02-09 07:31:00,
2016-02-09 07:36:00,40.5,37.8,29.18,South,181,1.0,3.0,90,0.00,,,0.00,0,Wunderground v.1.15,2016-02-09 07:36:00,
2016-02-09 07:46:00,40.5,37.8,29.18,South,182,1.0,2.0,90,0.00,,,0.00,0,Wunderground v.1.15,2016-02-09 07:46:00,
2016-02-09 07:56:00,40.6,37.9,29.17,South,182,1.0,1.0,90,0.00,,,0.00,0,Wunderground v.1.15,2016-02-09 07:56:00,
2016-02-09 08:01:00,40.6,37.9,29.16,South,191,1.0,1.0,90,0.00,,,0.00,0,Wunderground v.1.15,2016-02-09 08:01:00,
2016-02-09 08:06:00,40.6,38.2,29.14,South,182,1.0,3.0,91,0.00,,,0.00,9,Wunderground v.1.15,2016-02-09 08:06:00,
2016-02-09 08:16:00,40.5,38.1,29.13,SW,229,1.0,2.0,91,0.00,,,0.00,12,Wunderground v.1.15,2016-02-09 08:16:00,
2016-02-09 08:26:00,40.5,38.1,29.13,SW,236,0.0,1.0,91,0.00,,,0.00,23,Wunderground v.1.15,2016-02-09 08:26:00,
2016-02-09 08:31:00,40.4,38.0,29.13,SW,236,0.0,1.0,91,0.00,,,0.00,16,Wunderground v.1.15,2016-02-09 08:31:00,
2016-02-09 08:41:00,40.4,38.0,29.14,SW,236,0.0,0.0,91,0.00,,,0.00,12,Wunderground v.1.15,2016-02-09 08:41:00,
2016-02-09 08:46:00,40.4,38.0,29.14,SW,236,0.0,1.0,91,0.00,,,0.00,14,Wunderground v.1.15,2016-02-09 08:46:00,
2016-02-09 09:01:00,40.3,37.9,29.14,WSW,253,1.0,1.0,91,0.00,,,0.00,19,Wunderground v.1.15,2016-02-09 09:01:00,
2016-02-09 09:06:00,40.3,37.9,29.14,WSW,253,0.0,1.0,91,0.00,,,0.00,19,Wunderground v.1.15,2016-02-09 09:06:00,
2016-02-09 09:16:00,40.4,38.0,29.14,WSW,254,1.0,1.0,91,0.00,,,0.00,21,Wunderground v.1.15,2016-02-09 09:16:00,
2016-02-09 09:21:00,40.4,38.3,29.13,WSW,254,1.0,1.0,92,0.00,,,0.00,35,Wunderground v.1.15,2016-02-09 09:21:00,
2016-02-09 09:31:00,40.5,38.4,29.14,West,267,1.0,1.0,92,0.00,,,0.00,46,Wunderground v.1.15,2016-02-09 09:31:00,
2016-02-09 09:46:00,40.6,38.5,29.13,West,271,1.0,1.0,92,0.00,,,0.00,56,Wunderground v.1.15,2016-02-09 09:46:00,
2016-02-09 09:51:00,40.6,38.5,29.12,West,270,1.0,1.0,92,0.00,,,0.00,54,Wunderground v.1.15,2016-02-09 09:51:00,
2016-02-09 10:01:00,40.7,38.6,29.13,West,270,1.0,1.0,92,0.00,,,0.00,56,Wunderground v.1.15,2016-02-09 10:01:00,
2016-02-09 10:06:00,40.8,38.7,29.12,West,270,1.0,1.0,92,0.00,,,0.00,58,Wunderground v.1.15,2016-02-09 10:06:00,
2016-02-09 10:16:00,40.8,38.4,29.12,West,270,0.0,1.0,91,0.00,,,0.00,54,Wunderground v.1.15,2016-02-09 10:16:00,
2016-02-09 10:31:00,40.9,38.5,29.12,West,265,1.0,2.0,91,0.00,,,0.00,62,Wunderground v.1.15,2016-02-09 10:31:00,
2016-02-09 10:36:00,41.0,38.3,29.12,WNW,284,1.0,2.0,90,0.00,,,0.00,58,Wunderground v.1.15,2016-02-09 10:36:00,
2016-02-09 10:46:00,41.0,38.0,29.12,NW,311,2.0,3.0,89,0.00,,,0.00,63,Wunderground v.1.15,2016-02-09 10:46:00,
2016-02-09 10:51:00,41.0,37.7,29.11,WNW,303,2.0,3.0,88,0.00,,,0.00,69,Wunderground v.1.15,2016-02-09 10:51:00,
2016-02-09 11:01:00,41.2,37.6,29.12,WNW,284,2.0,2.0,87,0.00,,,0.00,114,Wunderground v.1.15,2016-02-09 11:01:00,
2016-02-09 11:06:00,41.3,37.4,29.12,NW,313,2.0,2.0,86,0.00,,,0.00,137,Wunderground v.1.15,2016-02-09 11:06:00,
2016-02-09 11:16:00,41.5,37.6,29.12,NW,307,3.0,5.0,86,0.00,,,0.00,98,Wunderground v.1.15,2016-02-09 11:16:00,
2016-02-09 11:21:00,41.6,37.4,29.12,NNW,334,3.0,6.0,85,0.00,,,0.00,100,Wunderground v.1.15,2016-02-09 11:21:00,
2016-02-09 11:31:00,41.7,37.5,29.12,WSW,253,3.0,3.0,85,0.00,,,0.00,148,Wunderground v.1.15,2016-02-09 11:31:00,
2016-02-09 11:36:00,41.9,37.7,29.12,NW,310,2.0,3.0,85,0.00,,,0.00,160,Wunderground v.1.15,2016-02-09 11:36:00,
2016-02-09 11:46:00,42.5,37.7,29.12,NW,313,3.0,3.0,83,0.00,,,0.00,171,Wunderground v.1.15,2016-02-09 11:46:00,
2016-02-09 11:51:00,42.8,38.0,29.12,NW,319,3.0,3.0,83,0.00,,,0.00,192,Wunderground v.1.15,2016-02-09 11:51:00,
2016-02-09 11:56:00,42.9,37.8,29.12,NW,325,2.0,5.0,82,0.00,,,0.00,142,Wunderground v.1.15,2016-02-09 11:56:00,
2016-02-09 12:06:00,42.9,36.8,29.12,WSW,252,4.0,5.0,79,0.00,,,0.00,199,Wunderground v.1.15,2016-02-09 12:06:00,
2016-02-09 12:11:00,43.0,36.9,29.12,NW,323,4.0,4.0,79,0.00,,,0.00,193,Wunderground v.1.15,2016-02-09 12:11:00,
2016-02-09 12:21:00,43.4,37.0,29.12,NW,319,2.0,2.0,78,0.00,,,0.00,316,Wunderground v.1.15,2016-02-09 12:21:00,
2016-02-09 12:31:00,44.4,36.6,29.12,ESE,104,3.0,3.0,74,0.00,,,0.00,302,Wunderground v.1.15,2016-02-09 12:31:00,
2016-02-09 12:36:00,44.6,36.1,29.12,NNW,340,3.0,8.0,72,0.00,,,0.00,322,Wunderground v.1.15,2016-02-09 12:36:00,
2016-02-09 12:41:00,44.6,36.1,29.11,NW,312,4.0,4.0,72,0.00,,,0.00,294,Wunderground v.1.15,2016-02-09 12:41:00,
2016-02-09 12:51:00,44.9,35.7,29.11,WNW,284,3.0,3.0,70,0.00,,,0.00,411,Wunderground v.1.15,2016-02-09 12:51:00,
2016-02-09 12:56:00,45.2,36.7,29.11,WNW,290,3.0,4.0,72,0.00,,,0.00,58,Wunderground v.1.15,2016-02-09 12:56:00,
2016-02-09 13:06:00,45.6,35.6,29.11,WNW,291,4.0,4.0,68,0.00,,,0.00,385,Wunderground v.1.15,2016-02-09 13:06:00,
2016-02-09 13:16:00,46.0,35.7,29.11,NNW,344,2.0,3.0,67,0.00,,,0.00,371,Wunderground v.1.15,2016-02-09 13:16:00,
2016-02-09 13:21:00,46.3,34.4,29.11,WNW,300,3.0,4.0,63,0.00,,,0.00,371,Wunderground v.1.15,2016-02-09 13:21:00,
2016-02-09 13:26:00,46.4,34.1,29.11,WSW,257,4.0,4.0,62,0.00,,,0.00,367,Wunderground v.1.15,2016-02-09 13:26:00,
2016-02-09 13:36:00,46.3,33.6,29.11,WNW,283,6.0,6.0,61,0.00,,,0.00,54,Wunderground v.1.15,2016-02-09 13:36:00,
2016-02-09 13:41:00,46.0,34.1,29.11,NNW,336,6.0,6.0,63,0.00,,,0.00,62,Wunderground v.1.15,2016-02-09 13:41:00,
2016-02-09 13:51:00,45.5,32.4,29.12,NW,315,7.0,8.0,60,0.00,,,0.00,62,Wunderground v.1.15,2016-02-09 13:51:00,
2016-02-09 14:06:00,45.2,32.1,29.12,WNW,289,5.0,6.0,60,0.00,,,0.00,58,Wunderground v.1.15,2016-02-09 14:06:00,
2016-02-09 14:11:00,45.1,32.0,29.12,West,273,5.0,5.0,60,0.00,,,0.00,118,Wunderground v.1.15,2016-02-09 14:11:00,
2016-02-09 14:21:00,44.7,32.5,29.13,WSW,253,6.0,10.0,62,0.00,,,0.00,192,Wunderground v.1.15,2016-02-09 14:21:00,
2016-02-09 14:26:00,44.9,32.7,29.12,WNW,290,5.0,10.0,62,0.00,,,0.00,162,Wunderground v.1.15,2016-02-09 14:26:00,
2016-02-09 14:36:00,45.6,32.9,29.13,WNW,289,5.0,5.0,61,0.00,,,0.00,127,Wunderground v.1.15,2016-02-09 14:36:00,
2016-02-09 14:41:00,45.5,32.4,29.13,NW,306,5.0,7.0,60,0.00,,,0.00,90,Wunderground v.1.15,2016-02-09 14:41:00,
2016-02-09 14:51:00,44.9,31.4,29.12,West,265,6.0,6.0,59,0.00,,,0.00,128,Wunderground v.1.15,2016-02-09 14:51:00,
2016-02-09 14:56:00,44.8,31.3,29.12,West,278,5.0,11.0,59,0.00,,,0.00,100,Wunderground v.1.15,2016-02-09 14:56:00,
2016-02-09 15:06:00,44.7,32.1,29.13,NW,319,4.0,9.0,61,0.00,,,0.00,86,Wunderground v.1.15,2016-02-09 15:06:00,
2016-02-09 15:11:00,44.7,32.5,29.13,NW,313,3.0,3.0,62,0.00,,,0.00,95,Wunderground v.1.15,2016-02-09 15:11:00,
2016-02-09 15:21:00,44.6,32.4,29.13,West,269,4.0,4.0,62,0.00,,,0.00,88,Wunderground v.1.15,2016-02-09 15:21:00,
2016-02-09 15:26:00,44.6,32.4,29.13,WSW,241,4.0,8.0,62,0.00,,,0.00,76,Wunderground v.1.15,2016-02-09 15:26:00,
2016-02-09 15:36:00,44.4,31.8,29.13,West,261,5.0,5.0,61,0.00,,,0.00,40,Wunderground v.1.15,2016-02-09 15:36:00,
2016-02-09 15:41:00,44.4,32.2,29.13,WSW,238,4.0,5.0,62,0.00,,,0.00,32,Wunderground v.1.15,2016-02-09 15:41:00,
2016-02-09 15:51:00,44.2,32.4,29.14,WSW,249,4.0,5.0,63,0.00,,,0.00,23,Wunderground v.1.15,2016-02-09 15:51:00,
2016-02-09 15:56:00,44.1,31.9,29.14,NW,304,5.0,5.0,62,0.00,,,0.00,26,Wunderground v.1.15,2016-02-09 15:56:00,
2016-02-09 16:06:00,43.8,32.4,29.14,WSW,238,5.0,6.0,64,0.00,,,0.00,26,Wunderground v.1.15,2016-02-09 16:06:00,
2016-02-09 16:11:00,43.7,32.7,29.14,WNW,284,4.0,7.0,65,0.00,,,0.00,23,Wunderground v.1.15,2016-02-09 16:11:00,
2016-02-09 16:21:00,43.4,32.8,29.15,WSW,242,4.0,4.0,66,0.00,,,0.00,18,Wunderground v.1.15,2016-02-09 16:21:00,
2016-02-09 16:31:00,43.0,32.4,29.15,WSW,257,4.0,4.0,66,0.00,,,0.00,9,Wunderground v.1.15,2016-02-09 16:31:00,
2016-02-09 16:36:00,42.8,32.6,29.15,WNW,288,4.0,4.0,67,0.00,,,0.00,9,Wunderground v.1.15,2016-02-09 16:36:00,
2016-02-09 16:51:00,42.2,32.4,29.16,WNW,302,4.0,4.0,68,0.00,,,0.00,7,Wunderground v.1.15,2016-02-09 16:51:00,
2016-02-09 17:01:00,42.0,32.6,29.16,West,269,4.0,4.0,69,0.00,,,0.00,0,Wunderground v.1.15,2016-02-09 17:01:00,
2016-02-09 17:06:00,41.9,33.2,29.16,WSW,245,4.0,4.0,71,0.00,,,0.00,0,Wunderground v.1.15,2016-02-09 17:06:00,
2016-02-09 17:11:00,41.8,33.4,29.17,West,260,3.0,4.0,72,0.00,,,0.00,0,Wunderground v.1.15,2016-02-09 17:11:00,
2016-02-09 17:21:00,41.7,33.3,29.18,SW,227,5.0,8.0,72,0.00,,,0.00,0,Wunderground v.1.15,2016-02-09 17:21:00,
2016-02-09 17:26:00,41.6,33.9,29.18,SSW,211,5.0,8.0,74,0.00,,,0.00,0,Wunderground v.1.15,2016-02-09 17:26:00,
2016-02-09 17:36:00,41.1,34.8,29.19,West,267,5.0,5.0,78,0.00,,,0.00,0,Wunderground v.1.15,2016-02-09 17:36:00,
2016-02-09 17:51:00,40.4,35.3,29.19,WNW,291,2.0,3.0,82,0.00,,,0.00,0,Wunderground v.1.15,2016-02-09 17:51:00,
2016-02-09 17:56:00,40.3,35.5,29.19,WSW,254,3.0,7.0,83,0.00,,,0.00,0,Wunderground v.1.15,2016-02-09 17:56:00,
2016-02-09 18:06:00,40.1,35.7,29.19,WSW,257,2.0,5.0,84,0.00,,,0.00,0,Wunderground v.1.15,2016-02-09 18:06:00,
2016-02-09 18:16:00,40.0,36.2,29.20,WSW,252,2.0,2.0,86,0.00,,,0.00,0,Wunderground v.1.15,2016-02-09 18:16:00,
2016-02-09 18:21:00,40.0,36.2,29.20,WNW,291,2.0,2.0,86,0.00,,,0.00,0,Wunderground v.1.15,2016-02-09 18:21:00,
2016-02-09 18:26:00,39.9,36.1,29.20,West,277,3.0,3.0,86,0.00,,,0.00,0,Wunderground v.1.15,2016-02-09 18:26:00,
2016-02-09 18:36:00,39.8,36.2,29.20,WNW,282,1.0,2.0,87,0.00,,,0.00,0,Wunderground v.1.15,2016-02-09 18:36:00,
2016-02-09 18:41:00,39.8,36.2,29.20,NW,306,2.0,3.0,87,0.00,,,0.00,0,Wunderground v.1.15,2016-02-09 18:41:00,
2016-02-09 18:51:00,39.9,36.1,29.20,West,265,4.0,4.0,86,0.00,,,0.00,0,Wunderground v.1.15,2016-02-09 18:51:00,
2016-02-09 19:01:00,40.0,36.2,29.20,SW,218,3.0,6.0,86,0.00,,,0.00,0,Wunderground v.1.15,2016-02-09 19:01:00,
2016-02-09 19:06:00,40.1,36.0,29.20,WSW,250,4.0,6.0,85,0.00,,,0.00,0,Wunderground v.1.15,2016-02-09 19:06:00,
2016-02-09 19:11:00,40.1,36.2,29.21,SW,219,4.0,4.0,86,0.00,,,0.00,0,Wunderground v.1.15,2016-02-09 19:11:00,
2016-02-09 19:21:00,40.0,35.9,29.21,SW,236,4.0,7.0,85,0.00,,,0.00,0,Wunderground v.1.15,2016-02-09 19:21:00,
2016-02-09 19:26:00,40.0,35.6,29.21,SW,217,5.0,7.0,84,0.00,,,0.00,0,Wunderground v.1.15,2016-02-09 19:26:00,
2016-02-09 19:36:00,40.0,35.6,29.22,WSW,252,4.0,7.0,84,0.00,,,0.00,0,Wunderground v.1.15,2016-02-09 19:36:00,
2016-02-09 19:46:00,39.9,35.8,29.21,West,269,4.0,9.0,85,0.00,,,0.00,0,Wunderground v.1.15,2016-02-09 19:46:00,
2016-02-09 19:51:00,39.9,35.8,29.21,WSW,239,4.0,4.0,85,0.00,,,0.00,0,Wunderground v.1.15,2016-02-09 19:51:00,
2016-02-09 19:56:00,39.7,35.6,29.21,WNW,302,4.0,4.0,85,0.00,,,0.00,0,Wunderground v.1.15,2016-02-09 19:56:00,
2016-02-09 20:06:00,39.5,35.7,29.21,SW,221,3.0,4.0,86,0.00,,,0.00,0,Wunderground v.1.15,2016-02-09 20:06:00,
2016-02-09 20:11:00,39.4,35.6,29.21,WNW,284,3.0,3.0,86,0.00,,,0.00,0,Wunderground v.1.15,2016-02-09 20:11:00,
2016-02-09 20:21:00,39.3,35.5,29.21,West,274,3.0,4.0,86,0.00,,,0.00,0,Wunderground v.1.15,2016-02-09 20:21:00,
2016-02-09 20:26:00,39.2,35.4,29.21,West,270,4.0,4.0,86,0.00,,,0.00,0,Wunderground v.1.15,2016-02-09 20:26:00,
2016-02-09 20:36:00,39.2,35.4,29.21,WSW,250,2.0,3.0,86,0.00,,,0.00,0,Wunderground v.1.15,2016-02-09 20:36:00,
2016-02-09 20:41:00,39.3,35.5,29.21,SW,233,2.0,2.0,86,0.00,,,0.00,0,Wunderground v.1.15,2016-02-09 20:41:00,
2016-02-09 21:06:00,39.6,35.5,29.22,West,281,5.0,9.0,85,0.00,,,0.00,0,Wunderground v.1.15,2016-02-09 21:06:00,
2016-02-09 21:11:00,39.6,35.5,29.22,NW,316,6.0,6.0,85,0.00,,,0.00,0,Wunderground v.1.15,2016-02-09 21:11:00,
2016-02-09 21:21:00,39.7,35.6,29.22,SSE,152,6.0,6.0,85,0.00,,,0.00,0,Wunderground v.1.15,2016-02-09 21:21:00,
2016-02-09 21:26:00,39.7,35.6,29.23,West,278,6.0,6.0,85,0.00,,,0.00,0,Wunderground v.1.15,2016-02-09 21:26:00,
2016-02-09 21:41:00,39.6,35.8,29.23,WSW,251,5.0,5.0,86,0.00,,,0.00,0,Wunderground v.1.15,2016-02-09 21:41:00,
2016-02-09 21:51:00,39.5,36.0,29.23,WSW,244,5.0,9.0,87,0.00,,,0.00,0,Wunderground v.1.15,2016-02-09 21:51:00,
2016-02-09 21:56:00,39.5,36.0,29.23,WSW,249,6.0,9.0,87,0.00,,,0.00,0,Wunderground v.1.15,2016-02-09 21:56:00,
2016-02-09 22:06:00,39.5,36.0,29.23,SW,236,6.0,6.0,87,0.00,,,0.00,0,Wunderground v.1.15,2016-02-09 22:06:00,
2016-02-09 22:11:00,39.5,36.0,29.23,West,264,7.0,7.0,87,0.00,,,0.00,0,Wunderground v.1.15,2016-02-09 22:11:00,
2016-02-09 22:21:00,39.6,36.0,29.23,SW,229,6.0,6.0,87,0.00,,,0.00,0,Wunderground v.1.15,2016-02-09 22:21:00,
2016-02-09 22:26:00,39.5,36.0,29.24,NW,315,6.0,6.0,87,0.00,,,0.00,0,Wunderground v.1.15,2016-02-09 22:26:00,
2016-02-09 22:36:00,39.5,36.0,29.24,NW,318,4.0,5.0,87,0.00,,,0.00,0,Wunderground v.1.15,2016-02-09 22:36:00,
2016-02-09 22:41:00,39.5,36.0,29.25,West,267,5.0,5.0,87,0.00,,,0.00,0,Wunderground v.1.15,2016-02-09 22:41:00,
2016-02-09 22:56:00,39.6,36.3,29.25,WSW,242,4.0,4.0,88,0.00,,,0.00,0,Wunderground v.1.15,2016-02-09 22:56:00,
2016-02-09 23:06:00,39.7,36.4,29.25,SW,220,4.0,5.0,88,0.00,,,0.00,0,Wunderground v.1.15,2016-02-09 23:06:00,
2016-02-09 23:21:00,39.7,36.4,29.25,WSW,252,3.0,3.0,88,0.00,,,0.00,0,Wunderground v.1.15,2016-02-09 23:21:00,
2016-02-09 23:26:00,39.8,36.5,29.26,WNW,300,3.0,7.0,88,0.00,,,0.00,0,Wunderground v.1.15,2016-02-09 23:26:00,
2016-02-09 23:36:00,39.8,36.5,29.26,WNW,283,3.0,3.0,88,0.00,,,0.00,0,Wunderground v.1.15,2016-02-09 23:36:00,
2016-02-09 23:41:00,39.8,36.5,29.26,West,277,3.0,4.0,88,0.00,,,0.00,0,Wunderground v.1.15,2016-02-09 23:41:00,